• In Belarus
  • List of Countries
  • For 7 days
  • Water Temperature
  • Satellite Maps
  • Weather Map
  • Weather Widgets
  • user-avatar
    Login

    Hourly Weather Adelaide

    Today, 20 May, Monday

    Time Temperature Precipitation Wind Pressure Humidity
    00:00 +17°C° 0 mm 3 mps 760 mmHg 72%
    01:00 +17°C° 0 mm 4 mps 760 mmHg 69%
    02:00 +15°C° 0 mm 4 mps 760 mmHg 65%
    03:00 +15°C° 0 mm 4 mps 760 mmHg 62%
    04:00 +15°C° 0 mm 5 mps 760 mmHg 66%
    05:00 +15°C° 0 mm 5 mps 760 mmHg 70%
    06:00 +15°C° 0 mm 5 mps 760 mmHg 73%
    07:00 +16°C° 0.1 mm 5 mps 761 mmHg 74%
    08:00 +16°C° 0.1 mm 5 mps 761 mmHg 75%
    09:00 +17°C° 0.1 mm 5 mps 761 mmHg 76%
    10:00 +17°C° 0.1 mm 5 mps 761 mmHg 75%
    11:00 +17°C° 0.1 mm 5 mps 761 mmHg 73%
    12:00 +19°C° 0.1 mm 5 mps 761 mmHg 72%
    13:00 +19°C° 0.1 mm 5 mps 761 mmHg 71%
    14:00 +19°C° 0.1 mm 4 mps 761 mmHg 69%
    15:00 +19°C° 0.1 mm 4 mps 761 mmHg 68%
    16:00 +18°C° 0 mm 4 mps 761 mmHg 72%
    17:00 +18°C° 0 mm 3 mps 761 mmHg 76%
    18:00 +17°C° 0 mm 2 mps 762 mmHg 80%
    19:00 +16°C° 0 mm 2 mps 762 mmHg 82%
    20:00 +16°C° 0 mm 2 mps 762 mmHg 83%
    21:00 +16°C° 0 mm 2 mps 762 mmHg 85%
    22:00 +16°C° 0 mm 2 mps 762 mmHg 85%
    23:00 +16°C° 0 mm 2 mps 762 mmHg 84%

    Tomorrow, 21 May, Tuesday

    Time Temperature Precipitation Wind Pressure Humidity
    00:00 +16°C° 0 mm 2 mps 762 mmHg 84%
    01:00 +16°C° 0 mm 2 mps 762 mmHg 79%
    02:00 +16°C° 0 mm 2 mps 762 mmHg 74%
    03:00 +16°C° 0 mm 2 mps 762 mmHg 70%
    04:00 +16°C° 0 mm 2 mps 762 mmHg 69%
    05:00 +16°C° 0 mm 2 mps 762 mmHg 67%
    06:00 +15°C° 0 mm 2 mps 762 mmHg 66%
    07:00 +16°C° 0 mm 3 mps 763 mmHg 62%
    08:00 +17°C° 0 mm 3 mps 763 mmHg 59%
    09:00 +19°C° 0 mm 3 mps 763 mmHg 55%
    10:00 +20°C° 0 mm 3 mps 763 mmHg 49%
    11:00 +21°C° 0 mm 3 mps 763 mmHg 43%
    12:00 +22°C° 0 mm 3 mps 763 mmHg 38%
    13:00 +22°C° 0 mm 3 mps 763 mmHg 36%
    14:00 +23°C° 0 mm 2 mps 762 mmHg 35%
    15:00 +23°C° 0 mm 2 mps 762 mmHg 34%
    16:00 +21°C° 0 mm 1 mps 763 mmHg 37%
    17:00 +20°C° 0 mm 1 mps 763 mmHg 41%
    18:00 +16°C° 0 mm 0 mps 763 mmHg 44%
    19:00 +16°C° 0 mm 0 mps 764 mmHg 43%
    20:00 +18°C° 0 mm 1 mps 764 mmHg 43%
    21:00 +16°C° 0 mm 1 mps 764 mmHg 42%
    22:00 +16°C° 0 mm 1 mps 764 mmHg 42%
    23:00 +16°C° 0 mm 1 mps 765 mmHg 42%

    Day after tomorrow, 22 May, Wednesday

    Time Temperature Precipitation Wind Pressure Humidity
    00:00 +16°C° 0 mm 1 mps 765 mmHg 42%
    01:00 +15°C° 0 mm 1 mps 765 mmHg 42%
    02:00 +15°C° 0 mm 1 mps 765 mmHg 42%
    03:00 +15°C° 0 mm 1 mps 765 mmHg 42%
    04:00 +15°C° 0 mm 1 mps 765 mmHg 43%
    05:00 +14°C° 0 mm 1 mps 766 mmHg 45%
    06:00 +14°C° 0 mm 2 mps 766 mmHg 47%
    07:00 +16°C° 0 mm 2 mps 766 mmHg 46%
    08:00 +17°C° 0 mm 2 mps 767 mmHg 46%
    09:00 +18°C° 0 mm 2 mps 767 mmHg 45%
    10:00 +20°C° 0 mm 2 mps 767 mmHg 43%
    11:00 +21°C° 0 mm 2 mps 766 mmHg 41%
    12:00 +24°C° 0 mm 1 mps 766 mmHg 39%
    13:00 +24°C° 0 mm 1 mps 766 mmHg 40%
    14:00 +24°C° 0 mm 1 mps 766 mmHg 40%
    15:00 +24°C° 0 mm 1 mps 765 mmHg 41%
    16:00 +21°C° 0 mm 2 mps 765 mmHg 47%
    17:00 +19°C° 0 mm 2 mps 765 mmHg 54%
    18:00 +17°C° 0 mm 2 mps 765 mmHg 61%
    19:00 +17°C° 0 mm 2 mps 766 mmHg 62%
    20:00 +16°C° 0 mm 2 mps 766 mmHg 63%
    21:00 +16°C° 0 mm 2 mps 766 mmHg 64%
    22:00 +16°C° 0 mm 2 mps 766 mmHg 64%
    23:00 +16°C° 0 mm 2 mps 766 mmHg 63%

    23 May, Thursday

    Time Temperature Precipitation Wind Pressure Humidity
    00:00 +15°C° 0 mm 1 mps 765 mmHg 62%
    01:00 +16°C° 0 mm 1 mps 765 mmHg 59%
    02:00 +16°C° 0 mm 1 mps 765 mmHg 57%
    03:00 +16°C° 0 mm 1 mps 764 mmHg 54%
    04:00 +15°C° 0 mm 1 mps 765 mmHg 56%
    05:00 +15°C° 0 mm 2 mps 765 mmHg 58%
    06:00 +15°C° 0 mm 2 mps 765 mmHg 59%
    07:00 +17°C° 0 mm 2 mps 765 mmHg 57%
    08:00 +18°C° 0 mm 2 mps 765 mmHg 55%
    09:00 +19°C° 0 mm 3 mps 765 mmHg 53%
    10:00 +20°C° 0 mm 3 mps 765 mmHg 50%
    11:00 +22°C° 0 mm 3 mps 764 mmHg 46%
    12:00 +24°C° 0 mm 3 mps 764 mmHg 43%
    13:00 +24°C° 0 mm 3 mps 763 mmHg 42%
    14:00 +24°C° 0 mm 3 mps 763 mmHg 41%
    15:00 +24°C° 0 mm 3 mps 762 mmHg 41%
    16:00 +23°C° 0 mm 2 mps 762 mmHg 44%
    17:00 +21°C° 0 mm 2 mps 762 mmHg 47%
    18:00 +20°C° 0 mm 2 mps 762 mmHg 50%
    19:00 +20°C° 0 mm 3 mps 762 mmHg 50%
    20:00 +20°C° 0 mm 3 mps 762 mmHg 49%
    21:00 +21°C° 0 mm 4 mps 762 mmHg 49%
    22:00 +21°C° 0 mm 5 mps 761 mmHg 48%
    23:00 +22°C° 0 mm 5 mps 761 mmHg 47%

    24 May, Friday

    Time Temperature Precipitation Wind Pressure Humidity
    00:00 +22°C° 0 mm 6 mps 760 mmHg 46%
    01:00 +21°C° 0.4 mm 6 mps 760 mmHg 49%
    02:00 +21°C° 0.4 mm 5 mps 760 mmHg 53%
    03:00 +20°C° 0.4 mm 5 mps 760 mmHg 56%
    04:00 +20°C° 0.2 mm 5 mps 760 mmHg 57%
    05:00 +20°C° 0.2 mm 5 mps 760 mmHg 58%
    06:00 +20°C° 0.2 mm 5 mps 761 mmHg 59%
    07:00 +20°C° 0 mm 4 mps 761 mmHg 62%
    08:00 +20°C° 0 mm 4 mps 761 mmHg 65%
    09:00 +20°C° 0 mm 4 mps 762 mmHg 67%
    10:00 +20°C° 0 mm 4 mps 762 mmHg 66%
    11:00 +21°C° 0 mm 3 mps 762 mmHg 64%
    12:00 +21°C° 0 mm 3 mps 761 mmHg 62%
    13:00 +21°C° 0 mm 3 mps 761 mmHg 64%
    14:00 +20°C° 0 mm 2 mps 761 mmHg 65%
    15:00 +20°C° 0 mm 2 mps 761 mmHg 66%
    16:00 +19°C° 0 mm 2 mps 761 mmHg 73%
    17:00 +19°C° 0 mm 1 mps 762 mmHg 79%
    18:00 +18°C° 0 mm 1 mps 762 mmHg 86%
    19:00 +16°C° 0 mm 1 mps 762 mmHg 87%
    20:00 +16°C° 0 mm 1 mps 762 mmHg 89%
    21:00 +15°C° 0 mm 1 mps 763 mmHg 91%
    22:00 +14°C° 0 mm 0 mps 762 mmHg 91%
    23:00 +13°C° 0 mm 0 mps 762 mmHg 91%

    25 May, Saturday

    Time Temperature Precipitation Wind Pressure Humidity
    00:00 +13°C° 0 mm 0 mps 762 mmHg 91%
    01:00 +13°C° 0 mm 0 mps 762 mmHg 91%
    02:00 +14°C° 0 mm 1 mps 762 mmHg 91%
    03:00 +14°C° 0 mm 1 mps 762 mmHg 91%
    04:00 +14°C° 0 mm 1 mps 762 mmHg 91%
    05:00 +14°C° 0 mm 1 mps 762 mmHg 91%
    06:00 +13°C° 0 mm 1 mps 762 mmHg 91%
    07:00 +14°C° 0 mm 2 mps 762 mmHg 86%
    08:00 +15°C° 0 mm 2 mps 762 mmHg 82%
    09:00 +16°C° 0 mm 3 mps 762 mmHg 77%
    10:00 +17°C° 0 mm 3 mps 762 mmHg 73%
    11:00 +18°C° 0 mm 4 mps 761 mmHg 69%
    12:00 +18°C° 0 mm 4 mps 761 mmHg 65%
    13:00 +18°C° 0 mm 4 mps 761 mmHg 67%
    14:00 +17°C° 0 mm 5 mps 760 mmHg 68%
    15:00 +17°C° 0 mm 5 mps 760 mmHg 69%
    16:00 +16°C° 0.1 mm 5 mps 760 mmHg 72%
    17:00 +16°C° 0.1 mm 5 mps 761 mmHg 75%
    18:00 +15°C° 0.1 mm 5 mps 761 mmHg 78%
    19:00 +15°C° 0.1 mm 6 mps 761 mmHg 79%
    20:00 +15°C° 0.1 mm 6 mps 761 mmHg 80%
    21:00 +15°C° 0.1 mm 6 mps 761 mmHg 81%
    22:00 +15°C° 0.3 mm 6 mps 761 mmHg 81%
    23:00 +15°C° 0.3 mm 7 mps 761 mmHg 81%
    Show more